| time (UTC) | temp F | wind direction | speed MPH | gust MPH | rain 1hr in | rain 24hr in | rain mn in | humidity % | barometer mb |
| 20260507132020 | 66 | 151 | 8.0 | 16.0 | 0.00 | 0.00 | 0.00 | 61 | 1017.0 |
| 20260507131025 | 66 | 144 | 8.0 | 15.0 | 0.00 | 0.00 | 0.00 | 62 | 1016.9 |
| 20260507130030 | 65 | 146 | 8.0 | 17.0 | 0.00 | 0.00 | 0.00 | 62 | 1016.9 |
| 20260507125018 | 65 | 159 | 8.0 | 16.0 | 0.00 | 0.00 | 0.00 | 62 | 1017.0 |
| 20260507124023 | 65 | 156 | 8.0 | 19.0 | 0.00 | 0.00 | 0.00 | 61 | 1017.0 |
| 20260507123028 | 66 | 161 | 9.0 | 19.0 | 0.00 | 0.00 | 0.00 | 60 | 1017.1 |
| 20260507122017 | 65 | 161 | 9.0 | 17.0 | 0.00 | 0.00 | 0.00 | 61 | 1017.3 |
| 20260507121021 | 65 | 143 | 10.0 | 18.0 | 0.00 | 0.00 | 0.00 | 63 | 1017.4 |
| 20260507120026 | 65 | 162 | 10.0 | 19.0 | 0.00 | 0.00 | 0.00 | 62 | 1017.3 |
| 20260507115033 | 65 | 154 | 10.0 | 19.0 | 0.00 | 0.00 | 0.00 | 62 | 1017.4 |
| 20260507114021 | 65 | 149 | 11.0 | 18.0 | 0.00 | 0.00 | 0.00 | 62 | 1017.4 |
| 20260507113024 | 65 | 149 | 9.0 | 17.0 | 0.00 | 0.00 | 0.00 | 63 | 1017.4 |
| 20260507112029 | 65 | 143 | 10.0 | 21.0 | 0.00 | 0.00 | 0.00 | 62 | 1017.3 |
| 20260507111017 | 65 | 142 | 9.0 | 18.0 | 0.00 | 0.00 | 0.00 | 61 | 1017.3 |
| 20260507110022 | 65 | 164 | 10.0 | 16.0 | 0.00 | 0.00 | 0.00 | 60 | 1017.2 |
| 20260507105027 | 65 | 143 | 9.0 | 17.0 | 0.00 | 0.00 | 0.00 | 60 | 1017.3 |
| 20260507104033 | 65 | 162 | 9.0 | 19.0 | 0.00 | 0.00 | 0.00 | 59 | 1017.3 |
| 20260507103020 | 65 | 164 | 10.0 | 18.0 | 0.00 | 0.00 | 0.00 | 60 | 1017.4 |
| 20260507102025 | 65 | 151 | 10.0 | 18.0 | 0.00 | 0.00 | 0.00 | 61 | 1017.6 |
| 20260507101030 | 65 | 154 | 9.0 | 19.0 | 0.00 | 0.00 | 0.00 | 61 | 1017.3 |
| 20260507100018 | 65 | 156 | 8.0 | 18.0 | 0.00 | 0.00 | 0.00 | 60 | 1017.3 |
| 20260507095024 | 64 | 166 | 9.0 | 17.0 | 0.00 | 0.00 | 0.00 | 62 | 1017.4 |
| 20260507094028 | 65 | 170 | 9.0 | 18.0 | 0.00 | 0.00 | 0.00 | 60 | 1017.4 |
| 20260507093033 | 65 | 142 | 10.0 | 22.0 | 0.00 | 0.00 | 0.00 | 61 | 1017.3 |
| 20260507092021 | 65 | 163 | 9.0 | 15.0 | 0.00 | 0.00 | 0.00 | 60 | 1017.3 |
| 20260507091028 | 65 | 164 | 10.0 | 17.0 | 0.00 | 0.00 | 0.00 | 60 | 1017.3 |
| 20260507090032 | 65 | 151 | 10.0 | 17.0 | 0.00 | 0.00 | 0.00 | 61 | 1017.4 |
| 20260507085019 | 64 | 153 | 8.0 | 13.0 | 0.00 | 0.00 | 0.00 | 63 | 1017.4 |
| 20260507084024 | 64 | 137 | 9.0 | 17.0 | 0.00 | 0.00 | 0.00 | 62 | 1017.4 |
| 20260507083029 | 64 | 167 | 7.0 | 15.0 | 0.00 | 0.00 | 0.00 | 62 | 1017.3 |
| 20260507082016 | 64 | 166 | 7.0 | 16.0 | 0.00 | 0.00 | 0.00 | 62 | 1017.3 |
| 20260507081022 | 64 | 151 | 8.0 | 15.0 | 0.00 | 0.00 | 0.00 | 61 | 1017.3 |
| 20260507080026 | 64 | 164 | 8.0 | 17.0 | 0.00 | 0.00 | 0.00 | 61 | 1017.1 |
| 20260507075031 | 63 | 147 | 9.0 | 16.0 | 0.00 | 0.00 | 0.00 | 63 | 1017.3 |
| 20260507074019 | 62 | 157 | 9.0 | 16.0 | 0.00 | 0.00 | 0.00 | 62 | 1017.4 |
| 20260507073024 | 62 | 162 | 8.0 | 16.0 | 0.00 | 0.00 | 0.00 | 63 | 1017.4 |
| 20260507072029 | 62 | 167 | 9.0 | 16.0 | 0.00 | 0.00 | 0.00 | 65 | 1017.3 |
| 20260507071017 | 61 | 157 | 9.0 | 16.0 | 0.00 | 0.00 | 0.00 | 65 | 1017.5 |
| 20260507070022 | 61 | 136 | 10.0 | 18.0 | 0.00 | 0.00 | 0.00 | 68 | 1017.4 |
| 20260507065027 | 60 | 168 | 9.0 | 21.0 | 0.00 | 0.00 | 0.00 | 69 | 1017.6 |
| 20260507064024 | 60 | 159 | 8.0 | 14.0 | 0.00 | 0.00 | 0.00 | 69 | 1017.6 |
| 20260507063027 | 60 | 136 | 8.0 | 14.0 | 0.00 | 0.00 | 0.00 | 69 | 1017.6 |
| 20260507062032 | 60 | 155 | 8.0 | 15.0 | 0.00 | 0.00 | 0.00 | 70 | 1017.7 |
| 20260507061020 | 59 | 181 | 7.0 | 13.0 | 0.00 | 0.00 | 0.00 | 72 | 1017.6 |
| 20260507060025 | 59 | 146 | 9.0 | 17.0 | 0.00 | 0.00 | 0.00 | 73 | 1017.5 |
| 20260507055030 | 59 | 159 | 9.0 | 16.0 | 0.00 | 0.00 | 0.00 | 74 | 1017.4 |
| 20260507054018 | 58 | 158 | 7.0 | 17.0 | 0.00 | 0.00 | 0.00 | 76 | 1017.3 |
| 20260507053023 | 58 | 156 | 7.0 | 14.0 | 0.00 | 0.00 | 0.00 | 77 | 1017.3 |
| 20260507052028 | 57 | 156 | 7.0 | 14.0 | 0.00 | 0.00 | 0.00 | 80 | 1017.1 |
| 20260507051016 | 55 | 168 | 8.0 | 16.0 | 0.00 | 0.00 | 0.00 | 82 | 1017.2 |
| 20260507050021 | 55 | 161 | 9.0 | 14.0 | 0.00 | 0.00 | 0.00 | 83 | 1017.1 |
| 20260507045026 | 54 | 155 | 7.0 | 14.0 | 0.00 | 0.00 | 0.00 | 86 | 1017.0 |
| 20260507044031 | 52 | 153 | 9.0 | 18.0 | 0.00 | 0.00 | 0.00 | 88 | 1016.9 |
| 20260507043019 | 51 | 149 | 8.0 | 17.0 | 0.00 | 0.00 | 0.00 | 91 | 1016.9 |
| 20260507042024 | 51 | 157 | 8.0 | 15.0 | 0.00 | 0.00 | 0.00 | 92 | 1016.7 |
| 20260507041029 | 50 | 154 | 8.0 | 18.0 | 0.00 | 0.00 | 0.00 | 93 | 1016.7 |
| 20260507040017 | 50 | 158 | 8.0 | 18.0 | 0.00 | 0.00 | 0.00 | 93 | 1016.6 |
| 20260507035022 | 49 | 165 | 9.0 | 18.0 | 0.00 | 0.00 | 0.00 | 93 | 1016.7 |
| 20260507034027 | 49 | 156 | 9.0 | 15.0 | 0.00 | 0.00 | 0.00 | 94 | 1016.5 |
| 20260507033032 | 49 | 159 | 8.0 | 15.0 | 0.00 | 0.00 | 0.00 | 94 | 1016.6 |
| 20260507032020 | 48 | 160 | 9.0 | 16.0 | 0.00 | 0.00 | 0.00 | 94 | 1016.5 |
| 20260507031025 | 48 | 152 | 7.0 | 13.0 | 0.00 | 0.00 | 0.00 | 94 | 1016.4 |
| 20260507030029 | 48 | 154 | 6.0 | 10.0 | 0.00 | 0.00 | 0.00 | 94 | 1016.3 |
| 20260507025017 | 48 | 151 | 6.0 | 11.0 | 0.00 | 0.00 | 0.00 | 94 | 1016.1 |
| 20260507024023 | 48 | 166 | 6.0 | 10.0 | 0.00 | 0.00 | 0.00 | 94 | 1016.3 |
| 20260507023027 | 47 | 159 | 6.0 | 11.0 | 0.00 | 0.00 | 0.00 | 94 | 1016.2 |
| 20260507022032 | 48 | 152 | 5.0 | 10.0 | 0.00 | 0.00 | 0.00 | 94 | 1016.2 |
| 20260507021020 | 48 | 157 | 5.0 | 9.0 | 0.00 | 0.00 | 0.00 | 94 | 1016.2 |
| 20260507020025 | 47 | 154 | 6.0 | 10.0 | 0.00 | 0.00 | 0.00 | 93 | 1016.2 |
| 20260507015110 | 47 | 149 | 5.0 | 9.0 | 0.00 | 0.00 | 0.00 | 93 | 1016.1 |
| 20260506234027 | 48 | 155 | 5.0 | 8.0 | 0.00 | 0.00 | 0.00 | 92 | 1016.3 |
| 20260506233032 | 48 | 155 | 5.0 | 11.0 | 0.00 | 0.00 | 0.00 | 92 | 1016.2 |
| 20260506232020 | 48 | 160 | 6.0 | 10.0 | 0.00 | 0.00 | 0.00 | 91 | 1016.2 |
| 20260506231025 | 48 | 167 | 6.0 | 13.0 | 0.00 | 0.00 | 0.00 | 91 | 1016.2 |
| 20260506230030 | 48 | 154 | 6.0 | 10.0 | 0.00 | 0.00 | 0.00 | 91 | 1016.4 |
| 20260506225018 | 49 | 161 | 6.0 | 11.0 | 0.00 | 0.00 | 0.00 | 91 | 1016.4 |
| 20260506224023 | 49 | 158 | 5.0 | 10.0 | 0.00 | 0.00 | 0.00 | 91 | 1016.5 |
| 20260506223028 | 49 | 160 | 6.0 | 10.0 | 0.00 | 0.00 | 0.00 | 91 | 1016.4 |
| 20260506222016 | 49 | 160 | 6.0 | 14.0 | 0.00 | 0.00 | 0.00 | 91 | 1016.4 |
| 20260506221021 | 49 | 159 | 6.0 | 11.0 | 0.00 | 0.00 | 0.00 | 91 | 1016.5 |
| 20260506220026 | 49 | 155 | 6.0 | 14.0 | 0.00 | 0.00 | 0.00 | 91 | 1016.5 |
| 20260506215031 | 49 | 148 | 6.0 | 11.0 | 0.00 | 0.00 | 0.00 | 90 | 1016.6 |
| 20260506214018 | 49 | 146 | 5.0 | 9.0 | 0.00 | 0.00 | 0.00 | 90 | 1016.6 |
| 20260506213023 | 49 | 159 | 6.0 | 13.0 | 0.00 | 0.00 | 0.00 | 90 | 1016.6 |
| 20260506212028 | 49 | 165 | 5.0 | 11.0 | 0.00 | 0.00 | 0.00 | 90 | 1016.5 |
| 20260506211016 | 49 | 173 | 5.0 | 13.0 | 0.00 | 0.00 | 0.00 | 89 | 1016.4 |
| 20260506210021 | 49 | 172 | 3.0 | 8.0 | 0.00 | 0.00 | 0.00 | 90 | 1016.5 |
| 20260506205026 | 48 | 162 | 5.0 | 10.0 | 0.00 | 0.00 | 0.00 | 90 | 1016.4 |
| 20260506204031 | 48 | 158 | 6.0 | 11.0 | 0.00 | 0.00 | 0.00 | 89 | 1016.5 |
| 20260506203021 | 49 | 158 | 5.0 | 10.0 | 0.00 | 0.00 | 0.00 | 87 | 1016.5 |
| 20260506202024 | 49 | 170 | 4.0 | 7.0 | 0.00 | 0.00 | 0.00 | 86 | 1016.6 |
| 20260506201029 | 49 | 173 | 3.0 | 7.0 | 0.00 | 0.00 | 0.00 | 85 | 1016.4 |
| 20260506200017 | 49 | 174 | 4.0 | 7.0 | 0.00 | 0.00 | 0.00 | 84 | 1016.5 |
| 20260506195022 | 49 | 177 | 4.0 | 7.0 | 0.00 | 0.00 | 0.00 | 83 | 1016.6 |
| 20260506194027 | 50 | 182 | 3.0 | 7.0 | 0.00 | 0.00 | 0.00 | 84 | 1016.4 |
| 20260506193032 | 50 | 180 | 4.0 | 7.0 | 0.00 | 0.00 | 0.00 | 84 | 1016.4 |
| 20260506192020 | 50 | 165 | 4.0 | 8.0 | 0.00 | 0.00 | 0.00 | 83 | 1016.4 |
| 20260506191025 | 50 | 151 | 5.0 | 7.0 | 0.00 | 0.00 | 0.00 | 82 | 1016.2 |
| 20260506190030 | 50 | 144 | 4.0 | 7.0 | 0.00 | 0.00 | 0.00 | 79 | 1016.3 |
| 20260506185138 | 51 | 168 | 3.0 | 6.0 | 0.00 | 0.00 | 0.00 | 78 | 1016.3 |
| 20260506173104 | 56 | 148 | 3.0 | 6.0 | 0.00 | 0.00 | 0.00 | 69 | 1015.7 |
| 20260506165047 | 59 | 157 | 4.0 | 10.0 | 0.00 | 0.00 | 0.00 | 65 | 1015.6 |
| 20260506160018 | 63 | 135 | 5.0 | 9.0 | 0.00 | 0.00 | 0.00 | 53 | 1015.5 |
| 20260506155022 | 64 | 138 | 5.0 | 10.0 | 0.00 | 0.00 | 0.00 | 52 | 1015.6 |
| 20260506154027 | 66 | 141 | 4.0 | 8.0 | 0.00 | 0.00 | 0.00 | 50 | 1015.6 |
| 20260506153033 | 67 | 133 | 6.0 | 10.0 | 0.00 | 0.00 | 0.00 | 49 | 1015.7 |
| 20260506152020 | 67 | 156 | 6.0 | 13.0 | 0.00 | 0.00 | 0.00 | 49 | 1015.7 |
| 20260506151025 | 68 | 155 | 4.0 | 10.0 | 0.00 | 0.00 | 0.00 | 47 | 1015.8 |
| 20260506150030 | 69 | 130 | 3.0 | 7.0 | 0.00 | 0.00 | 0.00 | 45 | 1015.7 |
| 20260506145020 | 70 | 140 | 3.0 | 8.0 | 0.00 | 0.00 | 0.00 | 43 | 1015.6 |
| 20260506144023 | 69 | 135 | 3.0 | 9.0 | 0.00 | 0.00 | 0.00 | 45 | 1015.7 |
| 20260506143028 | 70 | 151 | 3.0 | 6.0 | 0.00 | 0.00 | 0.00 | 44 | 1015.6 |
| 20260506142016 | 70 | 131 | 5.0 | 10.0 | 0.00 | 0.00 | 0.00 | 44 | 1015.6 |
| 20260506141021 | 69 | 155 | 5.0 | 13.0 | 0.00 | 0.00 | 0.00 | 46 | 1015.6 |
| 20260506140026 | 68 | 113 | 3.0 | 9.0 | 0.00 | 0.00 | 0.00 | 46 | 1015.9 |
| 20260506135031 | 69 | 126 | 4.0 | 11.0 | 0.00 | 0.00 | 0.00 | 46 | 1015.8 |
| 20260506134019 | 69 | 113 | 5.0 | 13.0 | 0.00 | 0.00 | 0.00 | 45 | 1015.7 |
| 20260506133024 | 69 | 133 | 3.0 | 7.0 | 0.00 | 0.00 | 0.00 | 44 | 1015.7 |